Index of /20260508/WXO-DD/model_gdps/15km/00/044
Name Last modified Size Description
Parent Directory -
20260508T00Z_MSC_GDPS_AirTemp_AGL-120m_LatLon0.15_PT044H.grib2 2026-05-08 03:53 903K
20260508T00Z_MSC_GDPS_AirTemp_AGL-2m_LatLon0.15_PT044H.grib2 2026-05-08 03:53 1.0M
20260508T00Z_MSC_GDPS_AirTemp_AGL-40m_LatLon0.15_PT044H.grib2 2026-05-08 03:53 807K
20260508T00Z_MSC_GDPS_AirTemp_AGL-80m_LatLon0.15_PT044H.grib2 2026-05-08 03:53 912K
20260508T00Z_MSC_GDPS_Albedo_Sfc_LatLon0.15_PT044H.grib2 2026-05-08 03:53 246K
20260508T00Z_MSC_GDPS_ConvectivePrecip-Accum_Sfc_LatLon0.15_PT044H.grib2 2026-05-08 03:53 2.9M
20260508T00Z_MSC_GDPS_DewPointDepression_AGL-2m_LatLon0.15_PT044H.grib2 2026-05-08 03:53 761K
20260508T00Z_MSC_GDPS_DewPoint_AGL-2m_LatLon0.15_PT044H.grib2 2026-05-08 03:53 605K
20260508T00Z_MSC_GDPS_DownwardLongwaveRadiationFlux-Accum_Sfc_LatLon0.15_PT044H.grib2 2026-05-08 03:53 770K
20260508T00Z_MSC_GDPS_DownwardShortwaveRadiationFlux-Accum_Sfc_LatLon0.15_PT044H.grib2 2026-05-08 03:53 1.0M
20260508T00Z_MSC_GDPS_FreezingRain-Accum1h_Sfc_LatLon0.15_PT044H.grib2 2026-05-08 03:53 28K
20260508T00Z_MSC_GDPS_FreezingRain-Accum_Sfc_LatLon0.15_PT044H.grib2 2026-05-08 03:53 192K
20260508T00Z_MSC_GDPS_IcePellets-Accum1h_Sfc_LatLon0.15_PT044H.grib2 2026-05-08 03:53 18K
20260508T00Z_MSC_GDPS_IcePellets-Accum_Sfc_LatLon0.15_PT044H.grib2 2026-05-08 03:53 52K
20260508T00Z_MSC_GDPS_LatentHeatNetFlux_Sfc_LatLon0.15_PT044H.grib2 2026-05-08 03:53 689K
20260508T00Z_MSC_GDPS_NetLongwaveRadiationFlux-Accum_Sfc_LatLon0.15_PT044H.grib2 2026-05-08 03:53 1.1M
20260508T00Z_MSC_GDPS_NetShortwaveRadiationFlux-Accum_Sfc_LatLon0.15_PT044H.grib2 2026-05-08 03:53 971K
20260508T00Z_MSC_GDPS_O3MixingRatio_Sfc_LatLon0.15_PT044H.grib2 2026-05-08 04:49 2.0M
20260508T00Z_MSC_GDPS_O3_EAtm_LatLon0.15_PT044H.grib2 2026-05-08 04:49 2.5M
20260508T00Z_MSC_GDPS_PlanetaryBoundaryLayerHeight_Sfc_LatLon0.15_PT044H.grib2 2026-05-08 03:53 2.4M
20260508T00Z_MSC_GDPS_Precip-Accum1h_Sfc_LatLon0.15_PT044H.grib2 2026-05-08 03:53 3.3M
20260508T00Z_MSC_GDPS_Precip-Accum_Sfc_LatLon0.15_PT044H.grib2 2026-05-08 03:53 4.9M
20260508T00Z_MSC_GDPS_PrecipRate_Sfc_LatLon0.15_PT044H.grib2 2026-05-08 03:53 3.2M
20260508T00Z_MSC_GDPS_Pressure_MSL_LatLon0.15_PT044H.grib2 2026-05-08 03:53 836K
20260508T00Z_MSC_GDPS_Pressure_Sfc_LatLon0.15_PT044H.grib2 2026-05-08 03:53 1.1M
20260508T00Z_MSC_GDPS_RadiativeTemp_Sfc_LatLon0.15_PT044H.grib2 2026-05-08 03:53 651K
20260508T00Z_MSC_GDPS_Rain-Accum1h_Sfc_LatLon0.15_PT044H.grib2 2026-05-08 03:53 1.7M
20260508T00Z_MSC_GDPS_Rain-Accum_Sfc_LatLon0.15_PT044H.grib2 2026-05-08 03:53 3.7M
20260508T00Z_MSC_GDPS_RelativeHumidity_AGL-2m_LatLon0.15_PT044H.grib2 2026-05-08 03:53 1.0M
20260508T00Z_MSC_GDPS_Runoff-Accum_Sfc_LatLon0.15_PT044H.grib2 2026-05-08 03:53 117K
20260508T00Z_MSC_GDPS_SensibleHeatNetFlux_Sfc_LatLon0.15_PT044H.grib2 2026-05-08 03:53 463K
20260508T00Z_MSC_GDPS_Snow-Accum1h_Sfc_LatLon0.15_PT044H.grib2 2026-05-08 03:53 1.1M
20260508T00Z_MSC_GDPS_Snow-Accum_Sfc_LatLon0.15_PT044H.grib2 2026-05-08 03:53 1.7M
20260508T00Z_MSC_GDPS_SnowDepth_Sfc_LatLon0.15_PT044H.grib2 2026-05-08 03:53 1.7M
20260508T00Z_MSC_GDPS_SoilTemp_DBS-0to10cm_LatLon0.15_PT044H.grib2 2026-05-08 03:53 505K
20260508T00Z_MSC_GDPS_SoilTemp_Sfc_LatLon0.15_PT044H.grib2 2026-05-08 03:53 571K
20260508T00Z_MSC_GDPS_SoilVolumetricWaterContent_DBS-0to10cm_LatLon0.15_PT044H.grib2 2026-05-08 03:53 598K
20260508T00Z_MSC_GDPS_SoilVolumetricWaterContent_DBS-0to1cm_LatLon0.15_PT044H.grib2 2026-05-08 03:53 648K
20260508T00Z_MSC_GDPS_SpecificHumidity_AGL-120m_LatLon0.15_PT044H.grib2 2026-05-08 03:53 1.1M
20260508T00Z_MSC_GDPS_SpecificHumidity_AGL-2m_LatLon0.15_PT044H.grib2 2026-05-08 03:53 1.2M
20260508T00Z_MSC_GDPS_SpecificHumidity_AGL-40m_LatLon0.15_PT044H.grib2 2026-05-08 03:53 1.1M
20260508T00Z_MSC_GDPS_SpecificHumidity_AGL-80m_LatLon0.15_PT044H.grib2 2026-05-08 03:53 1.1M
20260508T00Z_MSC_GDPS_SpecificHumidity_Sfc_LatLon0.15_PT044H.grib2 2026-05-08 03:53 640K
20260508T00Z_MSC_GDPS_TotalCloudCover_Sfc_LatLon0.15_PT044H.grib2 2026-05-08 03:53 822K
20260508T00Z_MSC_GDPS_UVIndex-ClearSky_Sfc_LatLon0.15_PT044H.grib2 2026-05-08 04:49 1.0M
20260508T00Z_MSC_GDPS_UVIndex_Sfc_LatLon0.15_PT044H.grib2 2026-05-08 04:49 1.5M
20260508T00Z_MSC_GDPS_UpwardLongwaveRadiationFlux_NTAtm_LatLon0.15_PT044H.grib2 2026-05-08 03:53 838K
20260508T00Z_MSC_GDPS_WindDir_AGL-10m_LatLon0.15_PT044H.grib2 2026-05-08 03:53 1.3M
20260508T00Z_MSC_GDPS_WindDir_AGL-120m_LatLon0.15_PT044H.grib2 2026-05-08 03:53 1.3M
20260508T00Z_MSC_GDPS_WindDir_AGL-40m_LatLon0.15_PT044H.grib2 2026-05-08 03:53 1.4M
20260508T00Z_MSC_GDPS_WindDir_AGL-80m_LatLon0.15_PT044H.grib2 2026-05-08 03:53 1.3M
20260508T00Z_MSC_GDPS_WindDir_IsbL-0700_LatLon0.15_PT044H.grib2 2026-05-08 03:53 1.6M
20260508T00Z_MSC_GDPS_WindGust-Max_AGL-10m_LatLon0.15_PT044H.grib2 2026-05-08 03:53 2.2M
20260508T00Z_MSC_GDPS_WindGust-Min_AGL-10m_LatLon0.15_PT044H.grib2 2026-05-08 03:53 2.1M
20260508T00Z_MSC_GDPS_WindGust_AGL-10m_LatLon0.15_PT044H.grib2 2026-05-08 03:53 2.1M
20260508T00Z_MSC_GDPS_WindSpeed_AGL-10m_LatLon0.15_PT044H.grib2 2026-05-08 03:53 1.1M
20260508T00Z_MSC_GDPS_WindSpeed_AGL-120m_LatLon0.15_PT044H.grib2 2026-05-08 03:53 1.3M
20260508T00Z_MSC_GDPS_WindSpeed_AGL-40m_LatLon0.15_PT044H.grib2 2026-05-08 03:53 1.2M
20260508T00Z_MSC_GDPS_WindSpeed_AGL-80m_LatLon0.15_PT044H.grib2 2026-05-08 03:53 1.3M
20260508T00Z_MSC_GDPS_WindSpeed_IsbL-0700_LatLon0.15_PT044H.grib2 2026-05-08 03:53 1.5M
20260508T00Z_MSC_GDPS_WindU_AGL-10m_LatLon0.15_PT044H.grib2 2026-05-08 03:53 1.3M
20260508T00Z_MSC_GDPS_WindU_AGL-120m_LatLon0.15_PT044H.grib2 2026-05-08 03:53 1.0M
20260508T00Z_MSC_GDPS_WindU_AGL-40m_LatLon0.15_PT044H.grib2 2026-05-08 03:53 971K
20260508T00Z_MSC_GDPS_WindU_AGL-80m_LatLon0.15_PT044H.grib2 2026-05-08 03:53 1.0M
20260508T00Z_MSC_GDPS_WindU_IsbL-0700_LatLon0.15_PT044H.grib2 2026-05-08 03:53 1.2M
20260508T00Z_MSC_GDPS_WindV_AGL-10m_LatLon0.15_PT044H.grib2 2026-05-08 03:53 1.3M
20260508T00Z_MSC_GDPS_WindV_AGL-120m_LatLon0.15_PT044H.grib2 2026-05-08 03:53 1.0M
20260508T00Z_MSC_GDPS_WindV_AGL-40m_LatLon0.15_PT044H.grib2 2026-05-08 03:53 973K
20260508T00Z_MSC_GDPS_WindV_AGL-80m_LatLon0.15_PT044H.grib2 2026-05-08 03:53 1.0M
20260508T00Z_MSC_GDPS_WindV_IsbL-0700_LatLon0.15_PT044H.grib2 2026-05-08 03:53 1.2M